This is the latest recevied weather packets stored in our database for station/object KC4LZN. If no packets are shown the sender has not sent any weather packets the latest 10 day(s).
| Time | Temp. | Humidity | Pressure | Rain* | Wind** | Luminosity | Snow |
|---|---|---|---|---|---|---|---|
| 1777585266 | 29.44° C | 58% | 1010 hPa | 0 mm | - | 142 W/m² | - |
| 1777584961 | 29.44° C | 58% | 1010.2 hPa | 0 mm | - | 139 W/m² | - |
| 1777584658 | 29.44° C | 57% | 1010.3 hPa | 0 mm | - | 144 W/m² | - |
| 1777584356 | 29.44° C | 56% | 1010.1 hPa | 0 mm | - | 176 W/m² | - |
| 1777584052 | 30° C | 55% | 1010.3 hPa | 0 mm | - | 199 W/m² | - |
| 1777583752 | 30° C | 55% | 1010.2 hPa | 0 mm | - | 222 W/m² | - |
| 1777583451 | 30° C | 55% | 1010.1 hPa | 0 mm | - | 220 W/m² | - |
| 1777583151 | 30.56° C | 54% | 1010.1 hPa | 0 mm | - | 213 W/m² | - |
| 1777582847 | 30.56° C | 53% | 1010.5 hPa | 0 mm | - | 289 W/m² | - |
| 1777582544 | 30.56° C | 51% | 1010.4 hPa | 0 mm | - | 334 W/m² | - |
| 1777582239 | 30.56° C | 52% | 1010.3 hPa | 0 mm | - | 641 W/m² | - |
| 1777581937 | 30.56° C | 51% | 1010.5 hPa | 0 mm | - | 261 W/m² | - |
| 1777581632 | 31.11° C | 49% | 1010.3 hPa | 0 mm | - | 265 W/m² | - |
| 1777581326 | 31.67° C | 48% | 1010.5 hPa | 0 mm | - | 378 W/m² | - |
| 1777581022 | 31.11° C | 48% | 1010.3 hPa | 0 mm | - | 588 W/m² | - |
| 1777580721 | 31.67° C | 47% | 1010.6 hPa | 0 mm | - | 603 W/m² | - |
| 1777580418 | 31.67° C | 46% | 1010.3 hPa | 0 mm | - | 616 W/m² | - |
| 1777580113 | 31.67° C | 48% | 1010.5 hPa | 0 mm | - | 620 W/m² | - |
| 1777579810 | 32.22° C | 45% | 1010.5 hPa | 0 mm | - | 632 W/m² | - |
| 1777579509 | 31.67° C | 45% | 1010.6 hPa | 0 mm | - | 631 W/m² | - |
| 1777579209 | 31.67° C | 46% | 1010.7 hPa | 0 mm | - | 657 W/m² | - |
| 1777578904 | 31.11° C | 45% | 1010.5 hPa | 0 mm | - | 663 W/m² | - |
| 1777578600 | 31.11° C | 44% | 1010.7 hPa | 0 mm | - | 685 W/m² | - |
| 1777578295 | 32.22° C | 45% | 1010.6 hPa | 0 mm | - | 643 W/m² | - |
| 1777577991 | 31.67° C | 42% | 1010.6 hPa | 0 mm | - | 683 W/m² | - |
* Rain latest hour (hover to see other rain measurements)
** Current wind speed in m/s (hover to see current wind gust speed)